Вернуться в каталог

SL-6 R/B(2)

АктивенHEO
NORAD 37171·ROCKET BODY·🇷🇺 Russia

Запущен Sep 30, 2010 с Plesetsk Cosmodrome

Loading…

Ближайшие Пролёты (ближайшие 24 часа)

TLE

СвежийSource: Space-Track

Эпоха: Sep 14, 2026, 02:12 UTC

1 37171U 10049B   26257.09196489  .00000302  00000-0  26126-4 0  9997
2 37171  61.8208 163.6260 7379866 258.0123  18.3315  2.04427015118878

Отслеживайте SL-6 R/B(2) в реальном времени с AllMySat

Download on the App Store